Location: Haliburton Scout Reserve
(45.0900°N, 78.3200°W)
Time: 03:12:51
(UTC-05:00)

IDEFIX/ARIANE 42P - Visible Passes

Search period start: 04 December 2016 00:00
Search period end: 14 December 2016 00:00
Orbit: 784 x 804 km, 98.2° (Epoch: 03 December)

Date Brightness Start Highest point End Pass type
(mag) Time Alt. Az. Time Alt. Az. Time Alt. Az.
04 Dec 5.7 05:11:48 10° ENE 05:14:13 13° E 05:16:38 10° ESE visible
04 Dec 2.6 06:49:16 10° NNE 06:54:29 83° WNW 06:59:40 10° SSW visible
04 Dec 3.6 18:10:04 10° S 18:15:04 48° W 18:20:07 10° NNW visible
05 Dec 3.3 06:21:00 10° NNE 06:26:08 56° E 06:31:14 10° S visible
05 Dec 2.6 17:41:29 10° SSE 17:46:42 85° WSW 17:51:55 10° NNW visible
05 Dec 5.8 19:25:44 10° W 19:27:04 11° W 19:28:24 10° WNW visible
06 Dec 4.5 05:53:02 10° NNE 05:57:39 32° E 06:02:16 10° SSE visible
06 Dec 2.6 17:13:22 10° SSE 17:18:26 56° ENE 17:23:29 10° N visible
06 Dec 5.2 18:54:36 10° SW 18:58:22 20° W 19:02:10 10° NW visible
07 Dec 5.4 05:25:31 10° NE 05:29:03 18° E 05:32:36 10° SE visible
07 Dec 4.2 18:25:05 10° SSW 18:29:48 35° W 18:34:33 10° NNW visible
08 Dec 2.8 06:35:35 10° NNE 06:40:48 77° ESE 06:46:00 10° S visible
08 Dec 3.1 17:56:14 10° S 18:01:21 63° W 18:06:31 10° NNW visible
09 Dec 3.9 06:07:26 10° NNE 06:12:23 43° E 06:17:20 10° S visible
09 Dec 2.5 17:27:51 10° SSE 17:33:01 75° ENE 17:38:13 10° N visible
09 Dec 5.6 19:10:22 10° WSW 19:13:12 15° W 19:16:04 10° NW visible
10 Dec 4.9 05:39:38 10° NE 05:43:53 25° E 05:48:06 10° SSE visible
10 Dec 2.9 16:59:56 10° SE 17:04:48 43° ENE 17:09:42 10° N visible
10 Dec 4.8 18:40:16 10° SSW 18:44:34 26° W 18:48:53 10° NW visible
11 Dec 5.6 05:12:34 10° ENE 05:15:13 14° E 05:17:52 10° ESE visible
11 Dec 2.5 06:50:13 10° N 06:55:27 80° WNW 07:00:39 10° SSW visible
11 Dec 3.7 18:11:06 10° S 18:16:03 46° W 18:21:03 10° NNW visible
12 Dec 3.2 06:21:56 10° NNE 06:27:06 59° E 06:32:14 10° S visible
12 Dec 2.7 17:42:28 10° SSE 17:47:39 81° WSW 17:52:52 10° NNW visible
12 Dec 5.9 19:27:20 10° W 19:28:04 10° W 19:28:49 10° WNW visible
13 Dec 4.4 05:53:56 10° NNE 05:58:38 33° E 06:03:19 10° SSE visible
13 Dec 2.6 17:14:19 10° SSE 17:19:23 58° ENE 17:24:28 10° N visible
13 Dec 5.2 18:55:42 10° SW 18:59:22 19° W 19:03:02 10° NW visible
